Location: Cahas Mountain Overlook
(37.0833°N, 80.1000°W)
Time: 23:39:55
(UTC-04:00)

AO-73 - Visible Passes

Search period start: 28 March 2023 00:00
Search period end: 07 April 2023 00:00
Orbit: 573 x 649 km, 97.7° (Epoch: 28 March)

Date Brightness Start Highest point End Pass type
(mag) Time Alt. Az. Time Alt. Az. Time Alt. Az.
28 Mar ? 04:42:38 10° NNE 04:45:20 38° NE 04:45:20 38° NE visible
29 Mar ? 04:57:07 10° N 05:00:08 47° N 05:00:08 47° N visible
30 Mar ? 05:11:41 10° N 05:14:56 46° NNW 05:14:56 46° NNW visible
31 Mar ? 03:51:45 10° ENE 03:52:43 13° ENE 03:52:43 13° ENE visible
31 Mar ? 05:26:22 10° N 05:29:42 35° WNW 05:29:42 35° WNW visible
01 Apr ? 04:05:28 10° NE 04:07:29 19° ENE 04:07:29 19° ENE visible
01 Apr ? 05:41:10 10° NNW 05:44:28 25° WNW 05:44:28 25° WNW visible
02 Apr ? 04:19:30 10° NNE 04:22:15 28° ENE 04:22:15 28° ENE visible
02 Apr ? 05:56:10 10° NNW 05:58:53 17° WNW 05:59:14 17° WNW visible
03 Apr ? 04:33:43 10° NNE 04:36:59 43° ENE 04:36:59 43° ENE visible
03 Apr ? 06:11:37 10° NW 06:13:11 12° WNW 06:13:58 11° WNW visible
04 Apr ? 04:48:03 10° NNE 04:51:42 66° NE 04:51:42 66° NE visible
05 Apr ? 05:02:29 10° N 05:06:26 71° WNW 05:06:26 71° WNW visible
06 Apr ? 03:43:27 10° ENE 03:44:09 11° E 03:44:09 11° E visible
06 Apr ? 05:17:01 10° N 05:20:56 46° WNW 05:21:08 46° W visible
